[Iaude] MPEC S47: 2023 SF [a=2.45,e=0.58,i=5.9,H=25.7]
    mpec at marsden.cfa.harvard.edu 
    mpec at marsden.cfa.harvard.edu
       
    Sun Sep 17 18:47:13 EDT 2023
    
    
  
M.P.E.C. 2023-S47                            Issued 2023 September 17, 22:45 UT
     The Minor Planet Electronic Circulars contain information on unusual
         minor planets, routine data on comets and natural satellites,
         and occasional editorial announcements.  They are published
    on behalf of Division F of the International Astronomical Union by the
          Minor Planet Center, Smithsonian Astrophysical Observatory,
                          Cambridge, MA 02138, U.S.A.
			  
             Prepared using the Tamkin Foundation Computer Network
                              MPC at CFA.HARVARD.EDU
            URL https://www.minorplanetcenter.net/    ISSN 1523-6714
                                    2023 SF                                     
Observations:
     K23S00F* C2023 09 16.33841800 30 20.286+39 57 50.65         20.44GVES047V00
     K23S00F  C2023 09 16.34387500 30 30.859+39 57 19.87               VES047V00
     K23S00F  C2023 09 16.34932200 30 41.422+39 56 48.84               VES047V00
     K23S00F  C2023 09 16.35477200 30 52.049+39 56 17.74         20.28GVES047V00
     K23S00F KC2023 09 16.41638600 32 51.428+39 50 08.52         19.88GVES047I52
     K23S00F KC2023 09 16.41697700 32 52.591+39 50 04.56         20.37GVES047I52
     K23S00F KC2023 09 16.41755900 32 53.725+39 50 00.78         20.60GVES047I52
     K23S00F KC2023 09 16.41814300 32 54.870+39 49 57.07         20.02GVES047I52
     K23S00F 1C2023 09 16.79871 00 45 55.50 +39 08 17.8          19.9 VXES047033
     K23S00F 1C2023 09 16.80071 00 45 59.29 +39 08 06.4          19.8 VXES047033
     K23S00F 1C2023 09 16.80200 00 46 01.82 +39 07 58.1          20.1 VXES047033
     K23S00F 1C2023 09 16.80289 00 46 03.58 +39 07 53.2          20.3 VXES047033
     K23S00F  C2023 09 17.35393401 03 23.170+38 05 21.41         20.79GVES047V00
     K23S00F  C2023 09 17.35941101 03 32.821+38 04 40.30         20.12GVES047V00
     K23S00F  C2023 09 17.36485601 03 42.347+38 03 59.51         20.12GVES047V00
     K23S00F  C2023 09 17.47747501 06 59.969+37 49 17.08         20.4 GVES047654
     K23S00F  C2023 09 17.48148501 07 06.930+37 48 44.64         20.4 GVES047654
     K23S00F 1C2023 09 17.82286 01 17 34.41 +37 02 07.1          20.3 VXES047033
     K23S00F 1C2023 09 17.82373 01 17 35.94 +37 02 00.2          20.1 VXES047033
     K23S00F 1C2023 09 17.82459 01 17 37.46 +37 01 54.5          20.6 VXES047033
     K23S00F 1C2023 09 17.82564 01 17 39.26 +37 01 46.2          21.0 VXES047033
     K23S00F KC2023 09 17.91036401 20 03.93 +36 51 15.9                VES047104
     K23S00F KC2023 09 17.92265401 20 24.38 +36 49 40.7          20.1 GVES047104
     K23S00F KC2023 09 17.92930901 20 35.31 +36 48 48.1          19.8 GVES047104
Observer details:
033 Karl Schwarzschild Observatory, Tautenburg.  Observers S. Melnikov, C.
    Hoegner, F. Ludwig, M. Hartmann, B. Stecklum, C. Hogner.  Measurer B.
    Stecklum.  1.34-m f/3 Schmidt + CCD.
104 San Marcello Pistoiese.  Observers P. Bacci, M. Maestripieri.  Measurers
    P. Bacci, L. Tesi, G. Fagioli.  0.60-m F4 Reflector + CCD.
654 Table Mountain Observatory, Wrightwood-PHMC.  Observers N. Evans, P. Choi,
    N. Saini, C. Zhai, R. Trahan, M. Shao.  1.0-m Reflector + CCD.
I52 Steward Observatory, Mt. Lemmon Station.  Observer D. C. Fuls.  Measurers
    E. J. Christensen, D. Fay, J. B. Fazekas, D. C. Fuls, A. R. Gibbs, A. D.
    Grauer, H. Groeller, J. K. Hogan, R. A. Kowalski, S. M. Larson, G. J.
    Leonard, D. Rankin, R. L. Seaman, A. Serrano, F. C. Shelly, K. W.
    Wierzchos.  1.0-m prime focus + CCD.
V00 Kitt Peak-Bok.  Observer R. A. Mastaler.  Measurers M. J. Brucker, C. E.
    Woodward, D. Fay, J. B. Fazekas, D. C. Fuls, A. R. Gibbs, H. Groeller, J.
    K. Hogan, R. A. Kowalski, S. M. Larson, C. Lejoly, G. J. Leonard, R. A.
    Mastaler, R. S. McMillan, D. Rankin, R. L. Seaman, A. Serrano, F. C.
    Shelly, K. W. Wierzchos.  2.25-m reflector + 4x4K mosaic CCD.
Orbital elements:
2023 SF                                                  Earth MOID = 0.0334 AU
Epoch 2023 Sept. 13.0 TT = JDT 2460200.5                Veres                   
M 359.36580              (2000.0)            P               Q                  
n   0.25705756     Peri.  167.50929     +0.99188568     +0.12678574             
a   2.4497163      Node   185.23415     -0.12369549     +0.94537071             
e   0.5782288      Incl.    5.90812     -0.02936367     +0.30033248             
P   3.83           H   25.74          G   0.15           U   8                  
Residuals in seconds of arc
230916 V00  0.4+  0.3-    230916 033  0.3+  0.4-    230917 654  0.3-  0.1+
230916 V00  0.1-  0.2-    230916 033  0.9-  0.2+    230917 033  0.3-  0.1+
230916 V00  0.3-  0.2-    230916 033  0.6-  0.2-    230917 033  0.1+  0.2-
230916 V00  0.1+  0.0     230916 033  0.3-  0.2+    230917 033  0.6+  0.6+
230916 I52  0.2-  0.5+    230917 V00  0.7-  0.1+    230917 033  0.5+  0.2+
230916 I52  0.0   0.1+    230917 V00  0.3+  0.2-    230917 104  0.2-  0.0
230916 I52  0.0   0.0     230917 V00  0.5+  0.2-    230917 104  0.5+  0.4+
230916 I52  0.2+  0.1-    230917 654  0.1-  0.2+    230917 104  0.4-  0.1-
Ephemeris:
2023 SF                  a,e,i = 2.45, 0.58, 6                   q = 1.0332
Date    TT    R. A. (2000) Decl.     Delta      r    Elong.  Phase     V
2023 08 18    18 35 45.7 +13 28 26   0.1330  1.0951   125.5    48.8    23.4
...
2023 09 02    19 20 12.0 +24 11 40   0.07109 1.0476   121.0    55.6    22.1
...
2023 09 10    21 04 17.7 +37 01 08   0.04474 1.0356   128.4    49.6    20.9
...
2023 09 16    00 18 35.3 +40 27 13   0.03830 1.0332   135.3    43.2    20.4
2023 09 17    00 52 13.2 +38 47 38   0.03906 1.0334   135.1    43.4    20.4
2023 09 18    01 22 26.5 +36 40 00   0.04034 1.0337   134.4    44.0    20.5
...
2023 09 24    03 12 25.4 +22 46 44   0.05586 1.0390   128.4    49.2    21.4
...
2023 10 02    04 03 40.5 +12 05 30   0.08631 1.0547   126.5    49.8    22.4
...
2023 10 17    04 26 25.6 +04 17 48   0.1508  1.1083   134.8    39.7    23.4
M. P. C. Staff               (C) Copyright 2023 MPC           M.P.E.C. 2023-S47
    
    
More information about the Iaude
mailing list